Station Historical Data
Daily Summary for May 21, 2017 Units:  English    Metric   Both
« Previous Day
Next Day »
Daily Weekly Monthly Yearly Custom
  High: Low: Average:
Temperature: 73.7 °F 54.6 °F 61.8 °F
Dew Point: 62.9 °F 40.9 °F 54.2 °F
Humidity: 90% 55% 76%
Wind Speed: 8.0mph 0.0mph 2.4mph
Wind Gust: 18.0mph - -
Wind- - SE
Pressure: 30.20 in 29.94 in -
Precipitation: 0.31 in    
Historical Graphs
 
 
Tabular Data for May 21, 2017
Time Temperature Dew Point Pressure Wind Wind Speed Wind Gust Humidity Rainfall Rate (Hourly)
00:00 56.9 °F 40.9 °F 30.20 in ENE 4.0 mph 11.0 mph 55% 0.00 in
00:05 56.4 °F 41.3 °F 30.20 in East 6.0 mph 8.0 mph 57% 0.00 in
00:10 56.3 °F 41.7 °F 30.20 in East 3.0 mph 9.0 mph 58% 0.00 in
00:15 56.1 °F 42.0 °F 30.20 in East 4.0 mph 13.0 mph 59% 0.00 in
00:20 56.0 °F 42.7 °F 30.19 in East 4.0 mph 13.0 mph 61% 0.00 in
00:25 56.1 °F 42.4 °F 30.19 in East 4.0 mph 10.0 mph 60% 0.00 in
00:30 56.2 °F 42.9 °F 30.19 in ESE 1.0 mph 8.0 mph 61% 0.00 in
00:35 56.2 °F 42.9 °F 30.19 in ENE 3.0 mph 7.0 mph 61% 0.00 in
00:40 56.2 °F 43.3 °F 30.19 in East 1.0 mph 6.0 mph 62% 0.00 in
00:45 56.3 °F 43.0 °F 30.19 in East 1.0 mph 6.0 mph 61% 0.00 in
00:50 56.3 °F 43.4 °F 30.19 in Calm   6.0 mph 62% 0.00 in
00:55 56.4 °F 43.5 °F 30.20 in ENE 1.0 mph 6.0 mph 62% 0.00 in
01:00 56.3 °F 43.4 °F 30.20 in ESE 1.0 mph 6.0 mph 62% 0.00 in
01:05 56.3 °F 43.9 °F 30.19 in ENE 2.0 mph 6.0 mph 63% 0.00 in
01:10 56.3 °F 43.9 °F 30.19 in ENE 2.0 mph 5.0 mph 63% 0.00 in
01:15 56.2 °F 43.8 °F 30.19 in ENE 3.0 mph 7.0 mph 63% 0.00 in
01:20 56.2 °F 44.2 °F 30.18 in ENE 3.0 mph 7.0 mph 64% 0.00 in
01:25 56.2 °F 44.6 °F 30.18 in ENE 4.0 mph 8.0 mph 65% 0.00 in
01:30 56.0 °F 44.4 °F 30.18 in ENE 4.0 mph 6.0 mph 65% 0.00 in
01:35 56.0 °F 44.4 °F 30.18 in East 3.0 mph 6.0 mph 65% 0.00 in
01:40 55.9 °F 44.3 °F 30.18 in ESE 3.0 mph 5.0 mph 65% 0.00 in
01:45 55.8 °F 44.6 °F 30.18 in ESE 1.0 mph 6.0 mph 66% 0.00 in
01:50 55.9 °F 44.7 °F 30.18 in NE 2.0 mph 5.0 mph 66% 0.00 in
01:55 55.9 °F 44.7 °F 30.18 in Calm   5.0 mph 66% 0.00 in
02:00 55.8 °F 44.6 °F 30.17 in East 3.0 mph 4.0 mph 66% 0.00 in
02:05 55.8 °F 44.6 °F 30.17 in East 2.0 mph 5.0 mph 66% 0.00 in
02:10 55.7 °F 44.5 °F 30.17 in ENE 2.0 mph 6.0 mph 66% 0.00 in
02:15 55.7 °F 44.9 °F 30.16 in ENE 3.0 mph 7.0 mph 67% 0.00 in
02:20 55.7 °F 44.9 °F 30.16 in ENE 5.0 mph 7.0 mph 67% 0.00 in
02:25 55.6 °F 45.2 °F 30.16 in ENE 3.0 mph 7.0 mph 68% 0.00 in
02:30 55.5 °F 45.1 °F 30.16 in NE 3.0 mph 5.0 mph 68% 0.00 in
02:35 55.5 °F 45.1 °F 30.16 in ENE 3.0 mph 6.0 mph 68% 0.00 in
02:40 55.4 °F 45.0 °F 30.16 in ENE 1.0 mph 5.0 mph 68% 0.00 in
02:45 55.5 °F 45.1 °F 30.16 in Calm   4.0 mph 68% 0.00 in
02:50 55.6 °F 45.2 °F 30.16 in ENE 2.0 mph 7.0 mph 68% 0.00 in
02:55 55.7 °F 45.3 °F 30.17 in ENE 2.0 mph 7.0 mph 68% 0.00 in
03:00 55.6 °F 45.6 °F 30.17 in NE 3.0 mph 7.0 mph 69% 0.00 in
03:05 55.5 °F 45.5 °F 30.16 in ENE 2.0 mph 5.0 mph 69% 0.00 in
03:10 55.5 °F 45.5 °F 30.16 in ENE 4.0 mph 7.0 mph 69% 0.00 in
03:15 55.4 °F 45.4 °F 30.15 in ENE 5.0 mph 8.0 mph 69% 0.00 in
03:20 55.3 °F 45.3 °F 30.15 in NE 3.0 mph 8.0 mph 69% 0.00 in
03:25 55.4 °F 45.4 °F 30.15 in ENE 4.0 mph 9.0 mph 69% 0.00 in
03:30 55.3 °F 45.3 °F 30.14 in ENE 4.0 mph 10.0 mph 69% 0.00 in
03:35 55.1 °F 45.1 °F 30.14 in NE 5.0 mph 10.0 mph 69% 0.00 in
03:40 54.9 °F 44.9 °F 30.14 in NE 5.0 mph 9.0 mph 69% 0.00 in
03:45 54.8 °F 45.2 °F 30.14 in NE 4.0 mph 8.0 mph 70% 0.00 in
03:50 54.7 °F 45.1 °F 30.13 in NE 3.0 mph 9.0 mph 70% 0.00 in
03:55 54.6 °F 45.4 °F 30.13 in NE 4.0 mph 9.0 mph 71% 0.00 in
04:00 54.7 °F 45.5 °F 30.13 in NE 3.0 mph 6.0 mph 71% 0.00 in
04:05 54.7 °F 45.5 °F 30.13 in ENE 3.0 mph 4.0 mph 71% 0.00 in
04:10 54.9 °F 46.0 °F 30.13 in ENE 2.0 mph 7.0 mph 72% 0.00 in
04:15 55.1 °F 46.2 °F 30.13 in ENE 2.0 mph 6.0 mph 72% 0.00 in
04:20 55.1 °F 46.2 °F 30.13 in ENE 3.0 mph 4.0 mph 72% 0.00 in
04:25 55.1 °F 46.2 °F 30.13 in ENE 2.0 mph 4.0 mph 72% 0.00 in
04:30 55.1 °F 46.2 °F 30.13 in ENE 2.0 mph 6.0 mph 72% 0.00 in
04:35 55.0 °F 46.5 °F 30.13 in ENE 3.0 mph 7.0 mph 73% 0.00 in
04:40 55.0 °F 46.5 °F 30.13 in ENE 2.0 mph 7.0 mph 73% 0.00 in
04:45 55.1 °F 46.6 °F 30.13 in ENE 3.0 mph 6.0 mph 73% 0.00 in
04:50 55.1 °F 46.6 °F 30.12 in NE 4.0 mph 6.0 mph 73% 0.00 in
04:55 55.2 °F 46.7 °F 30.12 in ENE 4.0 mph 7.0 mph 73% 0.00 in
05:00 55.1 °F 47.0 °F 30.12 in ENE 3.0 mph 7.0 mph 74% 0.00 in
05:05 55.1 °F 47.0 °F 30.12 in ENE 3.0 mph 7.0 mph 74% 0.00 in
05:10 55.1 °F 47.3 °F 30.11 in ENE 3.0 mph 7.0 mph 75% 0.00 in
05:15 55.1 °F 47.3 °F 30.11 in East 1.0 mph 5.0 mph 75% 0.00 in
05:20 55.1 °F 47.7 °F 30.11 in East 2.0 mph 7.0 mph 76% 0.00 in
05:25 55.1 °F 47.7 °F 30.11 in ENE 1.0 mph 6.0 mph 76% 0.00 in
05:30 55.1 °F 47.7 °F 30.11 in ENE 3.0 mph 8.0 mph 76% 0.00 in
05:35 55.2 °F 48.1 °F 30.11 in East 3.0 mph 4.0 mph 77% 0.00 in
05:40 55.4 °F 48.3 °F 30.11 in NE 4.0 mph 5.0 mph 77% 0.00 in
05:45 55.6 °F 48.2 °F 30.12 in ENE 3.0 mph 4.0 mph 76% 0.00 in
05:50 55.7 °F 48.6 °F 30.12 in ENE 3.0 mph 5.0 mph 77% 0.00 in
05:55 55.8 °F 48.3 °F 30.11 in ENE 3.0 mph 7.0 mph 76% 0.00 in
06:00 55.9 °F 48.8 °F 30.11 in ENE 3.0 mph 7.0 mph 77% 0.00 in
06:05 55.9 °F 48.8 °F 30.11 in ENE 2.0 mph 7.0 mph 77% 0.00 in
06:10 56.0 °F 48.9 °F 30.12 in ENE 2.0 mph 6.0 mph 77% 0.00 in
06:15 56.0 °F 48.9 °F 30.11 in NE 2.0 mph 4.0 mph 77% 0.00 in
06:20 56.2 °F 49.1 °F 30.11 in ENE 2.0 mph 7.0 mph 77% 0.00 in
06:25 56.3 °F 49.2 °F 30.11 in East 2.0 mph 6.0 mph 77% 0.00 in
06:30 56.4 °F 49.3 °F 30.11 in East 2.0 mph 5.0 mph 77% 0.00 in
06:35 56.5 °F 49.7 °F 30.10 in East 3.0 mph 5.0 mph 78% 0.00 in
06:40 56.6 °F 49.8 °F 30.10 in ENE 3.0 mph 7.0 mph 78% 0.00 in
06:45 56.7 °F 49.9 °F 30.10 in East 2.0 mph 6.0 mph 78% 0.00 in
06:50 56.7 °F 49.9 °F 30.10 in East 3.0 mph 6.0 mph 78% 0.00 in
06:55 56.7 °F 49.9 °F 30.10 in East 1.0 mph 5.0 mph 78% 0.00 in
07:00 56.9 °F 50.1 °F 30.10 in East 2.0 mph 5.0 mph 78% 0.00 in
07:05 57.2 °F 50.4 °F 30.10 in East 2.0 mph 6.0 mph 78% 0.00 in
07:10 57.4 °F 50.6 °F 30.10 in ESE 2.0 mph 7.0 mph 78% 0.00 in
07:15 57.7 °F 50.9 °F 30.09 in ESE 2.0 mph 7.0 mph 78% 0.00 in
07:20 58.0 °F 51.2 °F 30.10 in SE 2.0 mph 6.0 mph 78% 0.00 in
07:25 58.4 °F 51.6 °F 30.10 in SE 1.0 mph 6.0 mph 78% 0.00 in
07:30 59.0 °F 52.1 °F 30.10 in Calm   3.0 mph 78% 0.00 in
07:35 59.7 °F 52.5 °F 30.10 in East 1.0 mph 6.0 mph 77% 0.00 in
07:40 60.1 °F 52.9 °F 30.11 in Calm   6.0 mph 77% 0.00 in
07:45 60.3 °F 53.1 °F 30.11 in Calm     77% 0.00 in
07:50 60.4 °F 53.2 °F 30.11 in Calm     77% 0.00 in
07:55 60.7 °F 53.4 °F 30.10 in Calm     77% 0.00 in
08:00 60.8 °F 53.5 °F 30.11 in Calm     77% 0.00 in
08:05 60.8 °F 54.2 °F 30.10 in Calm     79% 0.00 in
08:10 60.5 °F 54.3 °F 30.11 in Calm     80% 0.00 in
08:15 60.4 °F 54.5 °F 30.11 in Calm     81% 0.00 in
08:20 60.1 °F 54.9 °F 30.12 in Calm     83% 0.05 in
08:25 59.7 °F 54.9 °F 30.12 in Calm     84% 0.06 in
08:30 59.5 °F 55.3 °F 30.13 in WNW 2.0 mph 4.0 mph 86% 0.06 in
08:35 59.1 °F 54.9 °F 30.12 in WNW 1.0 mph 6.0 mph 86% 0.08 in
08:40 58.8 °F 54.9 °F 30.12 in Calm   1.0 mph 87% 0.09 in
08:45 58.7 °F 55.2 °F 30.12 in WNW 2.0 mph 2.0 mph 88% 0.10 in
08:50 58.7 °F 55.2 °F 30.12 in Calm   2.0 mph 88% 0.15 in
08:55 58.5 °F 55.3 °F 30.11 in Calm     89% 0.16 in
09:00 58.5 °F 55.3 °F 30.11 in Calm     89% 0.16 in
09:05 58.9 °F 56.0 °F 30.10 in Calm   1.0 mph 90% 0.16 in
09:10 59.2 °F 56.3 °F 30.10 in Calm   1.0 mph 90% 0.16 in
09:15 59.4 °F 56.5 °F 30.10 in Calm     90% 0.16 in
09:20 59.7 °F 56.8 °F 30.10 in Calm     90% 0.11 in
09:25 60.4 °F 57.5 °F 30.10 in Calm     90% 0.10 in
09:30 60.2 °F 56.9 °F 30.10 in NNE 1.0 mph 3.0 mph 89% 0.10 in
09:35 60.2 °F 56.9 °F 30.10 in NNE 1.0 mph 2.0 mph 89% 0.08 in
09:40 60.4 °F 57.1 °F 30.10 in NNE 1.0 mph 2.0 mph 89% 0.06 in
09:45 60.5 °F 56.9 °F 30.10 in Calm   2.0 mph 88% 0.06 in
09:50 60.9 °F 57.6 °F 30.10 in Calm     89% 0.01 in
09:55 61.4 °F 57.8 °F 30.09 in Calm     88% 0.00 in
10:00 62.3 °F 58.7 °F 30.09 in Calm     88% 0.00 in
10:05 62.4 °F 58.2 °F 30.09 in ESE 1.0 mph 5.0 mph 86% 0.00 in
10:10 62.4 °F 58.2 °F 30.09 in East 1.0 mph 5.0 mph 86% 0.00 in
10:15 62.6 °F 58.4 °F 30.09 in East 2.0 mph 2.0 mph 86% 0.00 in
10:20 62.6 °F 58.0 °F 30.09 in Calm   3.0 mph 85% 0.00 in
10:25 62.6 °F 58.0 °F 30.09 in ESE 2.0 mph 3.0 mph 85% 0.00 in
10:30 62.8 °F 58.2 °F 30.09 in ENE 1.0 mph 3.0 mph 85% 0.00 in
10:35 63.0 °F 58.4 °F 30.09 in East 1.0 mph 3.0 mph 85% 0.00 in
10:40 63.2 °F 58.6 °F 30.09 in ENE 1.0 mph 3.0 mph 85% 0.00 in
10:45 63.4 °F 58.5 °F 30.09 in ENE 2.0 mph 5.0 mph 84% 0.00 in
10:50 63.8 °F 58.9 °F 30.08 in ENE 2.0 mph 5.0 mph 84% 0.00 in
10:55 64.5 °F 59.2 °F 30.08 in ENE 1.0 mph 4.0 mph 83% 0.00 in
11:00 64.7 °F 58.7 °F 30.08 in Calm     81% 0.00 in
11:05 65.4 °F 59.8 °F 30.08 in ENE 2.0 mph 3.0 mph 82% 0.00 in
11:10 66.2 °F 59.8 °F 30.08 in Calm   3.0 mph 80% 0.00 in
11:15 66.5 °F 59.8 °F 30.08 in East 2.0 mph 7.0 mph 79% 0.00 in
11:20 66.9 °F 59.5 °F 30.08 in ENE 2.0 mph 4.0 mph 77% 0.00 in
11:25 67.3 °F 59.1 °F 30.07 in East 1.0 mph 7.0 mph 75% 0.00 in
11:30 67.7 °F 59.5 °F 30.07 in ENE 2.0 mph 6.0 mph 75% 0.00 in
11:35 68.0 °F 59.8 °F 30.06 in East 1.0 mph 6.0 mph 75% 0.00 in
11:40 68.2 °F 59.6 °F 30.06 in ENE 1.0 mph 3.0 mph 74% 0.00 in
11:45 68.6 °F 60.4 °F 30.06 in Calm     75% 0.00 in
11:50 69.0 °F 60.4 °F 30.06 in East 1.0 mph 3.0 mph 74% 0.00 in
11:55 69.3 °F 59.9 °F 30.06 in East 1.0 mph 3.0 mph 72% 0.00 in
12:05 70.2 °F 60.4 °F 30.05 in Calm   2.0 mph 71% 0.00 in
12:10 70.7 °F 61.2 °F 30.05 in Calm   3.0 mph 72% 0.00 in
12:15 71.2 °F 60.9 °F 30.05 in East 3.0 mph 4.0 mph 70% 0.00 in
12:20 71.5 °F 61.6 °F 30.04 in SE 2.0 mph 4.0 mph 71% 0.00 in
12:25 71.3 °F 60.6 °F 30.04 in SSE 2.0 mph 5.0 mph 69% 0.00 in
12:30 71.1 °F 60.0 °F 30.04 in Calm   4.0 mph 68% 0.00 in
12:35 71.2 °F 60.5 °F 30.04 in SSE 1.0 mph 4.0 mph 69% 0.00 in
12:40 71.3 °F 61.0 °F 30.04 in Calm     70% 0.00 in
12:45 71.5 °F 61.2 °F 30.04 in Calm     70% 0.00 in
12:50 72.0 °F 61.3 °F 30.03 in Calm     69% 0.00 in
12:55 72.6 °F 61.0 °F 30.03 in Calm   4.0 mph 67% 0.00 in
13:00 72.6 °F 61.0 °F 30.03 in East 1.0 mph 4.0 mph 67% 0.00 in
13:05 72.5 °F 60.5 °F 30.03 in East 1.0 mph 3.0 mph 66% 0.00 in
13:10 72.7 °F 60.7 °F 30.03 in Calm   3.0 mph 66% 0.00 in
13:15 72.5 °F 60.1 °F 30.02 in Calm     65% 0.00 in
13:20 72.6 °F 61.0 °F 30.02 in Calm   3.0 mph 67% 0.00 in
13:25 72.8 °F 61.2 °F 30.02 in Calm   2.0 mph 67% 0.00 in
13:30 73.0 °F 61.4 °F 30.02 in Calm     67% 0.00 in
13:35 72.9 °F 60.9 °F 30.02 in Calm   3.0 mph 66% 0.00 in
13:40 73.0 °F 61.4 °F 30.02 in Calm   4.0 mph 67% 0.00 in
13:45 73.3 °F 60.8 °F 30.02 in SW 1.0 mph 6.0 mph 65% 0.00 in
13:50 73.6 °F 61.1 °F 30.02 in South 1.0 mph 5.0 mph 65% 0.00 in
13:55 73.7 °F 61.6 °F 30.02 in SSW 1.0 mph 3.0 mph 66% 0.00 in
14:00 72.8 °F 62.0 °F 30.02 in WNW 3.0 mph 6.0 mph 69% 0.00 in
14:05 72.1 °F 61.8 °F 30.01 in WNW 3.0 mph 6.0 mph 70% 0.00 in
14:10 72.0 °F 61.7 °F 30.01 in WNW 2.0 mph 5.0 mph 70% 0.00 in
14:15 72.3 °F 62.0 °F 30.01 in NW 1.0 mph 4.0 mph 70% 0.00 in
14:20 72.4 °F 61.7 °F 30.01 in Calm   1.0 mph 69% 0.00 in
14:25 72.4 °F 61.7 °F 30.01 in Calm   3.0 mph 69% 0.00 in
14:30 72.3 °F 62.0 °F 30.01 in WSW 1.0 mph 2.0 mph 70% 0.00 in
14:35 72.1 °F 62.2 °F 30.01 in WSW 1.0 mph 3.0 mph 71% 0.00 in
14:40 71.7 °F 62.2 °F 30.01 in West 2.0 mph 3.0 mph 72% 0.00 in
14:45 71.5 °F 62.4 °F 30.01 in West 1.0 mph 3.0 mph 73% 0.00 in
14:50 71.6 °F 62.9 °F 30.00 in Calm   1.0 mph 74% 0.00 in
14:55 71.6 °F 62.1 °F 30.00 in Calm     72% 0.00 in
15:00 71.7 °F 61.4 °F 30.00 in Calm     70% 0.00 in
15:05 71.8 °F 61.5 °F 30.00 in Calm   2.0 mph 70% 0.00 in
15:10 71.9 °F 60.8 °F 29.99 in SW 1.0 mph 4.0 mph 68% 0.00 in
15:15 72.1 °F 60.5 °F 29.99 in SSW 2.0 mph 5.0 mph 67% 0.00 in
15:20 72.4 °F 60.4 °F 29.99 in South 2.0 mph 5.0 mph 66% 0.00 in
15:25 72.4 °F 60.4 °F 29.99 in South 2.0 mph 6.0 mph 66% 0.00 in
15:30 72.4 °F 60.0 °F 29.99 in South 1.0 mph 5.0 mph 65% 0.00 in
15:35 72.3 °F 60.3 °F 29.99 in South 3.0 mph 6.0 mph 66% 0.00 in
15:40 72.1 °F 60.5 °F 29.98 in South 3.0 mph 8.0 mph 67% 0.00 in
15:45 71.5 °F 60.8 °F 29.98 in South 1.0 mph 6.0 mph 69% 0.00 in
15:50 71.0 °F 61.1 °F 29.98 in SSW 6.0 mph 8.0 mph 71% 0.00 in
15:55 70.8 °F 60.9 °F 29.98 in South 3.0 mph 7.0 mph 71% 0.00 in
16:00 70.6 °F 60.7 °F 29.98 in Calm   6.0 mph 71% 0.00 in
16:05 70.3 °F 60.8 °F 29.98 in South 2.0 mph 4.0 mph 72% 0.00 in
16:10 70.0 °F 60.9 °F 29.99 in SSW 2.0 mph 7.0 mph 73% 0.00 in
16:15 69.7 °F 61.0 °F 29.99 in SSW 3.0 mph 7.0 mph 74% 0.00 in
16:20 69.0 °F 60.7 °F 30.00 in SSW 4.0 mph 8.0 mph 75% 0.01 in
16:25 68.3 °F 61.2 °F 30.00 in SSW 4.0 mph 8.0 mph 78% 0.02 in
16:30 67.6 °F 60.9 °F 30.00 in SSW 1.0 mph 7.0 mph 79% 0.02 in
16:35 67.0 °F 61.0 °F 30.00 in SW 3.0 mph 5.0 mph 81% 0.03 in
16:40 66.5 °F 60.8 °F 30.00 in SSW 2.0 mph 6.0 mph 82% 0.04 in
16:45 66.1 °F 61.1 °F 29.99 in SSW 2.0 mph 7.0 mph 84% 0.06 in
16:50 65.6 °F 60.6 °F 29.99 in South 2.0 mph 7.0 mph 84% 0.08 in
16:55 65.5 °F 61.2 °F 29.99 in Calm   4.0 mph 86% 0.09 in
17:00 65.4 °F 61.1 °F 29.99 in Calm   4.0 mph 86% 0.10 in
17:05 65.2 °F 60.9 °F 29.99 in SW 3.0 mph 4.0 mph 86% 0.10 in
17:10 65.1 °F 61.1 °F 29.99 in SSW 2.0 mph 4.0 mph 87% 0.10 in
17:15 65.1 °F 61.1 °F 29.99 in South 2.0 mph 6.0 mph 87% 0.10 in
17:20 65.0 °F 61.0 °F 29.99 in SSE 5.0 mph 5.0 mph 87% 0.09 in
17:25 64.8 °F 60.8 °F 29.98 in SSE 5.0 mph 6.0 mph 87% 0.09 in
17:30 64.7 °F 60.4 °F 29.99 in SSE 6.0 mph 9.0 mph 86% 0.09 in
17:35 64.6 °F 60.0 °F 29.98 in SSE 8.0 mph 12.0 mph 85% 0.08 in
17:40 64.5 °F 59.9 °F 29.98 in SSE 6.0 mph 12.0 mph 85% 0.06 in
17:45 64.4 °F 59.8 °F 29.98 in SSE 6.0 mph 12.0 mph 85% 0.04 in
17:50 64.3 °F 59.7 °F 29.98 in SSE 4.0 mph 10.0 mph 85% 0.03 in
17:55 64.1 °F 59.5 °F 29.98 in South 4.0 mph 10.0 mph 85% 0.02 in
18:00 63.8 °F 58.9 °F 29.98 in SSE 8.0 mph 9.0 mph 84% 0.02 in
18:05 63.3 °F 58.4 °F 29.97 in SE 4.0 mph 10.0 mph 84% 0.02 in
18:10 63.0 °F 58.1 °F 29.98 in SSE 5.0 mph 10.0 mph 84% 0.02 in
18:15 62.4 °F 57.2 °F 29.98 in South 6.0 mph 15.0 mph 83% 0.03 in
18:20 62.0 °F 57.1 °F 29.97 in South 7.0 mph 13.0 mph 84% 0.03 in
18:25 61.8 °F 56.9 °F 29.98 in SE 7.0 mph 10.0 mph 84% 0.02 in
18:30 61.7 °F 57.1 °F 29.98 in South 2.0 mph 9.0 mph 85% 0.02 in
18:35 61.6 °F 57.4 °F 29.98 in SSW 2.0 mph 8.0 mph 86% 0.03 in
18:40 61.5 °F 57.3 °F 29.98 in South 3.0 mph 8.0 mph 86% 0.03 in
18:45 61.4 °F 57.2 °F 29.98 in South 3.0 mph 7.0 mph 86% 0.04 in
18:50 61.4 °F 57.5 °F 29.97 in South 3.0 mph 6.0 mph 87% 0.04 in
18:55 61.4 °F 57.2 °F 29.97 in South 3.0 mph 7.0 mph 86% 0.04 in
19:00 61.4 °F 57.2 °F 29.97 in South 3.0 mph 8.0 mph 86% 0.03 in
19:05 61.4 °F 56.8 °F 29.97 in SSW 5.0 mph 8.0 mph 85% 0.03 in
19:10 61.2 °F 56.7 °F 29.97 in South 4.0 mph 9.0 mph 85% 0.03 in
19:15 61.1 °F 56.2 °F 29.97 in South 3.0 mph 8.0 mph 84% 0.02 in
19:20 61.0 °F 56.1 °F 29.97 in SE 3.0 mph 8.0 mph 84% 0.02 in
19:25 60.9 °F 56.0 °F 29.98 in SE 2.0 mph 7.0 mph 84% 0.02 in
19:30 60.9 °F 56.0 °F 29.97 in SSE 4.0 mph 6.0 mph 84% 0.02 in
19:35 60.9 °F 56.0 °F 29.97 in SSW 3.0 mph 6.0 mph 84% 0.01 in
19:40 60.8 °F 55.9 °F 29.97 in South 3.0 mph 6.0 mph 84% 0.01 in
19:45 60.8 °F 55.6 °F 29.97 in South 3.0 mph 6.0 mph 83% 0.00 in
19:50 60.8 °F 55.6 °F 29.97 in South 3.0 mph 7.0 mph 83% 0.00 in
19:55 60.7 °F 55.5 °F 29.97 in South 3.0 mph 7.0 mph 83% 0.00 in
20:00 60.8 °F 55.6 °F 29.97 in Calm   7.0 mph 83% 0.00 in
20:05 60.7 °F 55.5 °F 29.97 in SSW 3.0 mph 7.0 mph 83% 0.00 in
20:10 60.8 °F 55.6 °F 29.97 in South 3.0 mph 10.0 mph 83% 0.00 in
20:15 61.0 °F 55.5 °F 29.97 in SSW 4.0 mph 8.0 mph 82% 0.00 in
20:20 60.9 °F 55.4 °F 29.97 in South 3.0 mph 7.0 mph 82% 0.00 in
20:25 61.0 °F 55.5 °F 29.97 in South 5.0 mph 9.0 mph 82% 0.00 in
20:30 61.1 °F 55.2 °F 29.97 in South 6.0 mph 13.0 mph 81% 0.00 in
20:35 61.1 °F 55.2 °F 29.96 in SSW 5.0 mph 10.0 mph 81% 0.00 in
20:40 60.9 °F 55.4 °F 29.96 in South 5.0 mph 10.0 mph 82% 0.00 in
20:45 60.8 °F 54.9 °F 29.96 in South 6.0 mph 18.0 mph 81% 0.00 in
20:50 60.8 °F 54.9 °F 29.96 in SSW 5.0 mph 10.0 mph 81% 0.00 in
20:55 60.6 °F 54.7 °F 29.96 in South 2.0 mph 10.0 mph 81% 0.00 in
21:00 60.6 °F 55.1 °F 29.96 in South 4.0 mph 11.0 mph 82% 0.00 in
21:05 60.5 °F 55.0 °F 29.96 in SSW 6.0 mph 10.0 mph 82% 0.00 in
21:10 60.4 °F 54.9 °F 29.96 in South 4.0 mph 10.0 mph 82% 0.00 in
21:15 60.4 °F 54.9 °F 29.96 in South 5.0 mph 12.0 mph 82% 0.00 in
21:20 60.3 °F 54.8 °F 29.97 in South 5.0 mph 12.0 mph 82% 0.00 in
21:25 60.3 °F 54.8 °F 29.97 in South 4.0 mph 13.0 mph 82% 0.00 in
21:30 60.3 °F 54.8 °F 29.97 in South 5.0 mph 15.0 mph 82% 0.00 in
21:35 60.2 °F 54.7 °F 29.96 in SSW 6.0 mph 13.0 mph 82% 0.00 in
21:40 60.2 °F 54.7 °F 29.96 in South 3.0 mph 13.0 mph 82% 0.00 in
21:45 60.0 °F 54.5 °F 29.96 in SSW 7.0 mph 11.0 mph 82% 0.00 in
21:50 59.9 °F 54.4 °F 29.96 in South 7.0 mph 13.0 mph 82% 0.00 in
21:55 59.9 °F 54.1 °F 29.96 in SSE 5.0 mph 9.0 mph 81% 0.00 in
22:00 59.9 °F 54.1 °F 29.96 in SSW 3.0 mph 10.0 mph 81% 0.00 in
22:05 60.0 °F 54.2 °F 29.96 in SSE 4.0 mph 13.0 mph 81% 0.00 in
22:10 59.9 °F 54.1 °F 29.95 in South 5.0 mph 13.0 mph 81% 0.00 in
22:15 60.0 °F 54.2 °F 29.96 in SSE 2.0 mph 13.0 mph 81% 0.00 in
22:20 60.0 °F 54.2 °F 29.96 in SSW 3.0 mph 9.0 mph 81% 0.00 in
22:25 60.0 °F 54.2 °F 29.96 in SSE 4.0 mph 8.0 mph 81% 0.00 in
22:30 60.0 °F 54.2 °F 29.96 in WSW 5.0 mph 10.0 mph 81% 0.00 in
22:35 60.1 °F 54.2 °F 29.96 in South 2.0 mph 8.0 mph 81% 0.00 in
22:40 60.2 °F 54.0 °F 29.95 in South 4.0 mph 10.0 mph 80% 0.00 in
22:45 60.2 °F 54.0 °F 29.95 in South 4.0 mph 10.0 mph 80% 0.00 in
22:50 60.3 °F 54.1 °F 29.95 in South 4.0 mph 9.0 mph 80% 0.00 in
22:55 60.4 °F 54.5 °F 29.95 in South 3.0 mph 8.0 mph 81% 0.00 in
23:00 60.5 °F 54.3 °F 29.95 in South 4.0 mph 9.0 mph 80% 0.00 in
23:05 60.5 °F 54.6 °F 29.95 in South 4.0 mph 10.0 mph 81% 0.00 in
23:10 60.7 °F 54.8 °F 29.95 in South 4.0 mph 10.0 mph 81% 0.00 in
23:20 60.7 °F 54.8 °F 29.94 in South 7.0 mph 9.0 mph 81% 0.00 in
23:25 60.8 °F 54.6 °F 29.94 in South 3.0 mph 12.0 mph 80% 0.00 in
23:30 60.9 °F 54.7 °F 29.94 in South 3.0 mph 8.0 mph 80% 0.00 in
23:35 60.9 °F 54.7 °F 29.94 in South 2.0 mph 7.0 mph 80% 0.00 in
23:40 61.0 °F 54.8 °F 29.94 in South 4.0 mph 10.0 mph 80% 0.00 in
23:45 61.0 °F 54.8 °F 29.94 in South 5.0 mph 10.0 mph 80% 0.00 in
23:50 61.0 °F 54.8 °F 29.94 in South 5.0 mph 11.0 mph 80% 0.00 in
23:55 60.8 °F 54.9 °F 29.94 in South 4.0 mph 11.0 mph 81% 0.00 in
Buffalo, New York, USA
Compliments of Weather Underground - 2.5 mb